Location: Altamira
(10.5079°N, 66.8544°W)
Time: 09:03:41
(UTC+00:00)

ISS - Pass Details

Date: 08 December 2021
Orbit: 413 x 422 km, 51.6° (Epoch: 25 January)

Event Time Altitude Azimuth Distance (km) Brightness Sun altitude
Rises 23:15:34 0° 340° (NNW) 2,355 0.1 -16.8°
Reaches altitude 10° 23:17:54 10° 354° (N) 1,489 -1.1 -17.4°
Enters shadow 23:18:00 11° 355° (N) 1,452 -1.2 -17.4°
